User: anonymous   Login
Location: Lussas
(44.6119°N, 4.4726°E)
Time: 07:21:13
(UTC+00:00)
Language:

CZ-4B R/B - Orbit

View from above orbital plane
View from above orbital plane
View from above satellite
View from above satellite

Ground track
Ground track

The orbit data is extracted from the following two-line orbital elements,

1 27432U 02024C   21057.91730503 -.00000016  00000-0  15658-4 0  9996
2 27432  99.0903  70.4475 0050505 177.5169 245.3063 14.14104672969612
Epoch (UTC): 26 February 2021 22:00:55
Eccentricity: 0.0050505
inclination: 99.0903°
perigee height: 809 km
apogee height: 882 km
right ascension of ascending node: 70.4475°
argument of perigee: 177.5169°
revolutions per day: 14.14104672
mean anomaly at epoch: 245.3063°
orbit number at epoch: 96961

The dashed part of the orbit path shows where the satellite is in the earth's shadow,  

DLR